Regional Weather Roundup
Issued by NWS Huntsville, AL

Home | Current Version | Previous Version | Text Only | Print | Product List | Glossary On
Versions: 1 2 3 4 5 6 7 8 9 10 11 12 13 14 15 16 17 18 19 20 21 22 23 24 25 26 27
000
ASUS44 KHUN 270910
RWRHUN

WEATHER ROUNDUP FOR THE TENNESSEE VALLEY
NATIONAL WEATHER SERVICE HUNTSVILLE AL
400 AM CDT TUE SEP 27 2016

ALZ001>004-271000-
NORTHWEST ALABAMA

CITY           SKY/WX    TMP DP  RH WIND       PRES   REMARKS
COURTLAND HCN    N/A     63 N/A N/A NE3         N/A
RUSSELLVILLE     N/A     63 N/A N/A MISG        N/A
SHOALS AIRPORT PTCLDY    64  57  78 VRB5      30.03F
SHOALS TVA RES   N/A     63 N/A N/A MISG        N/A
$$

ALZ005>007-016-271000-
NORTH CENTRAL ALABAMA

CITY           SKY/WX    TMP DP  RH WIND       PRES   REMARKS
CULLMAN AG STN   N/A     64 N/A N/A N3          N/A
DECATUR AP     PTCLDY    63  60  90 N7        30.01F
HUNTSVILLE AP  CLEAR     65  59  81 N8        30.00F
MERIDIANVILLE  CLOUDY    63  54  72 N3        30.01F
REDSTONE ARSN  CLOUDY    64  61  90 NE9       29.98F
VINEMONT AP    CLOUDY    64  60  89 N5        30.02S
$$

ALZ008>010-271000-
NORTHEAST ALABAMA

CITY           SKY/WX    TMP DP  RH WIND       PRES   REMARKS
ALBERTVILLE    MOCLDY    66  66 100 N3        29.98F
FORT PAYNE     FOG       64  63  94 NE3       29.98F VSB 1/2
SCOTTSBORO AP  CLOUDY    68  66  94 NE3       30.00S
SCOTTSBORO HCN   N/A     66 N/A N/A MISG        N/A
VALLEY HEAD      N/A     64 N/A N/A MISG        N/A
$$

TNZ076-096-097-271000-
SOUTHEASTERN MIDDLE TENNESSEE

CITY           SKY/WX    TMP DP  RH WIND       PRES   REMARKS
TULLAHOMA      CLOUDY    61  57  88 N8        30.04F
WINCHESTER     CLOUDY    64  61  88 N7        30.03S
$$

...SURROUNDING SITES...

CITY           SKY/WX    TMP DP  RH WIND       PRES   REMARKS
ATLANTA        CLOUDY    71  67  87 S6        29.98F
ANNISTON       CLOUDY    68  65  90 CALM      29.97F
BIRMINGHAM     CLEAR     69  66  90 NE3       29.99F
CHATTANOOGA    CLOUDY    71  66  84 N5        29.99F
CORINTH        FAIR      57  54  88 CALM      30.04F
DALTON         FOG       66  66 100 CALM      29.99S VSB 3/4
GADSDEN        CLEAR     66  65  96 CALM      29.97F
GOLDEN TRNGL   CLOUDY    66  55  68 N7        29.98F
HALEYVILLE     FAIR      62  58  86 NE5       30.03F
JACKSON TN       N/A    N/A N/A N/A MISG      30.07S
MEMPHIS        MOCLDY    61  54  77 N7        30.06S
NASHVILLE      CLEAR     56  53  90 CALM      30.06F
OXFORD MS      FAIR      59  54  82 N5        30.06F
ROME           CLOUDY    66  65  96 NE3       29.97F FOG
SAVANNAH       CLOUDY    57  57 100 CALM      30.04F
TUPELO         MOCLDY    63  57  81 N8        30.02F
TUSCALOOSA     CLOUDY    69  66  90 N6        29.96F
$$

...GULF COAST WEATHER...

CITY           SKY/WX    TMP DP  RH WIND       PRES   REMARKS
GULFPORT       CLEAR     73  72  96 N5        29.93S
PASCAGOULA     CLEAR     68  68 100 CALM      29.94S FOG
MOBILE         CLEAR     70  69  97 CALM      29.94F
GULF SHORES    SUNNY     71  71 100 NE10      29.92F
PENSACOLA      CLEAR     72  71  97 CALM      29.92S
DESTIN         CLEAR     76  71  85 CALM      29.93F
PANAMA CITY    CLEAR     71  69  95 N3        29.93S
APPALACHICOLA  CLEAR     71  71 100 NE6       29.92F
$$





USA.gov is the U.S. government's official web portal to all federal, state and local government web resources and services.